map of OBO home
OBO - Airport
Location
City:  Obihiro, Hokkaido, Japan
Name:Tokachi-Obihiro Airport
ICAO:RJCB
IATA:OBO

Details
Type:Airport (Aerodrome, Airfield)
Use:Public/Civil
Latitude:42°44'00"N (42.733333)
Longitude:143°13'02"E (143.217222)
Datum:WGS 1984
Elevation:505 ft (154 m)
Variation:9.18°W (WMM2015v2 magnetic declination)
-0.06° annual change
Runways:1
Longest:8202 × 150 ft (2500 × 45.5 m), paved

Time
Time Zone:UTC+9
Local Time:

Weather
METAR:RJCB 041100Z 29011G23KT 260V330 9999 FEW015 M06/M16 Q1004
TAF:RJCB 041108Z 0412/0518 31016KT 9999 FEW030
TEMPO 0412/0418 31018G28KT
TEMPO 0500/0506 31018G28KT
BECMG 0509/0512 35005KT

Related Locations
Nearby:
Farthest:CTQ: 11337 mi / 18245 km
Santa Vitória do Palmar [Aeropuerto Fernando Ferrari], RS, BR

Find:

   beyond  
but within

Other Information
Maps:
NOTAMs:
Links:
Sources:

  
  • flag of Japan
  • flag of Hokkaido
  

Sectional Chart

Flight Planning
at skyvector.com

Satellite Image

Google Maps Satellite view

 

Copyright © 2004-2019 Karl L. Swartz. All rights reserved.
The Great Circle Mapper name and logo are trademarks of the Great Circle Mapper.
All other trademarks mentioned herein belong to their respective owners.
Please see credits for attibutions and further copyright information.

  Follow gcmap on Facebook Follow gcmap on Twitter GCmap on LinkedIn

hCard Microformat

Geo Microformat